sat.trackr.live / text

‹ back to catalog

STARLINK-6188

NORAD 56376 · 2023-061C

PAYLOAD ACTIVE UNKNOWN

§ Identity

Operator
Country
US
Launch date
2023-05-04
Launch site
AFETR
Launch vehicle
Mass (kg)
RCS (m²)

Purposes: comms

External: N2YO · Heavens-Above · Gunter

§ Orbital elements

Epoch: 2026-09-20T22:26:38.827104Z

Period
94.27 min
Inclination
43.0035°
Eccentricity
0.0000861
Mean motion
15.27574315 rev/d
Perigee alt
482.5 km
Apogee alt
483.7 km
Semi-major
6,861.2 km
B*
-5.6821e-6
RAAN
174.9428°
Arg perigee
267.9122°
Mean anomaly
92.1631°
Rev number
18,661

§ Raw data

STARLINK-61881 56376U 23061C   26263.93517161 -.00000418  00000+0 -56821-5 0  99922 56376  43.0035 174.9428 0000861 267.9122  92.1631 15.27574315186617

JSON: /api/v1/satellites/56376 · /tle

For live sub-satellite position, see the globe view (requires WebGL).

§ Visibility from observer

Set your observer location to see the next 7 days of passes ≥ 10°. The values pass through the URL so the page stays shareable.

No JS? Fill the form by hand. The geolocation button needs JavaScript.